Previsão horária em Abaigar

Hoje, 26 Janeiro, Terça-feira

Tempo Temperatura Precipitação Vento Pressão Humidade
00:00 +4°C° 0 mm 1 m/s 708 mmHg 93%
01:00 +4°C° 0 mm 1 m/s 708 mmHg 92%
02:00 +3°C° 0 mm 1 m/s 709 mmHg 92%
03:00 +3°C° 0 mm 1 m/s 709 mmHg 92%
04:00 +3°C° 0 mm 1 m/s 709 mmHg 91%
05:00 +3°C° 0 mm 1 m/s 709 mmHg 90%
06:00 +3°C° 0 mm 1 m/s 709 mmHg 89%
07:00 +4°C° 0 mm 1 m/s 709 mmHg 87%
08:00 +5°C° 0 mm 1 m/s 709 mmHg 85%
09:00 +6°C° 0 mm 1 m/s 710 mmHg 83%
10:00 +7°C° 0 mm 1 m/s 710 mmHg 80%
11:00 +9°C° 0 mm 1 m/s 710 mmHg 77%
12:00 +11°C° 0 mm 1 m/s 710 mmHg 74%
13:00 +11°C° 0.1 mm 1 m/s 710 mmHg 77%
14:00 +11°C° 0.1 mm 1 m/s 710 mmHg 80%
15:00 +10°C° 0.1 mm 1 m/s 710 mmHg 83%
16:00 +10°C° 0.4 mm 1 m/s 710 mmHg 87%
17:00 +9°C° 0.4 mm 1 m/s 710 mmHg 90%
18:00 +8°C° 0.4 mm 0 m/s 710 mmHg 93%
19:00 +9°C° 0.2 mm 1 m/s 710 mmHg 93%
20:00 +9°C° 0.2 mm 1 m/s 710 mmHg 94%
21:00 +9°C° 0.2 mm 1 m/s 710 mmHg 94%
22:00 +9°C° 0.3 mm 1 m/s 710 mmHg 94%
23:00 +9°C° 0.3 mm 1 m/s 710 mmHg 94%

Amanhã, 27 Janeiro, Quarta-feira

Tempo Temperatura Precipitação Vento Pressão Humidade
00:00 +9°C° 0.3 mm 1 m/s 710 mmHg 94%
01:00 +9°C° 0.4 mm 1 m/s 710 mmHg 94%
02:00 +10°C° 0.4 mm 1 m/s 710 mmHg 94%
03:00 +10°C° 0.4 mm 1 m/s 710 mmHg 95%
04:00 +10°C° 0.3 mm 1 m/s 710 mmHg 95%
05:00 +10°C° 0.3 mm 1 m/s 710 mmHg 95%
06:00 +10°C° 0.3 mm 1 m/s 711 mmHg 94%
07:00 +10°C° 0.2 mm 1 m/s 711 mmHg 94%
08:00 +10°C° 0.2 mm 1 m/s 711 mmHg 94%
09:00 +10°C° 0.2 mm 1 m/s 711 mmHg 94%
10:00 +11°C° 0.7 mm 1 m/s 712 mmHg 94%
11:00 +11°C° 0.7 mm 1 m/s 712 mmHg 95%
12:00 +10°C° 0.7 mm 2 m/s 712 mmHg 95%
13:00 +10°C° 0.3 mm 2 m/s 712 mmHg 93%
14:00 +12°C° 0.3 mm 2 m/s 712 mmHg 90%
15:00 +13°C° 0.3 mm 2 m/s 711 mmHg 87%
16:00 +12°C° 0 mm 2 m/s 712 mmHg 89%
17:00 +11°C° 0 mm 1 m/s 712 mmHg 91%
18:00 +11°C° 0 mm 1 m/s 712 mmHg 93%
19:00 +10°C° 0 mm 1 m/s 712 mmHg 93%
20:00 +10°C° 0 mm 1 m/s 712 mmHg 93%
21:00 +10°C° 0 mm 1 m/s 712 mmHg 93%
22:00 +9°C° 0 mm 1 m/s 712 mmHg 93%
23:00 +9°C° 0 mm 1 m/s 712 mmHg 93%

Depois de amanhã, 28 Janeiro, Quinta-feira

Tempo Temperatura Precipitação Vento Pressão Humidade
00:00 +9°C° 0 mm 1 m/s 712 mmHg 92%
01:00 +9°C° 0 mm 1 m/s 712 mmHg 92%
02:00 +9°C° 0 mm 1 m/s 711 mmHg 92%
03:00 +9°C° 0 mm 1 m/s 711 mmHg 91%
04:00 +9°C° 0 mm 1 m/s 711 mmHg 91%
05:00 +8°C° 0 mm 1 m/s 710 mmHg 91%
06:00 +8°C° 0 mm 1 m/s 710 mmHg 91%
07:00 +9°C° 0 mm 1 m/s 710 mmHg 90%
08:00 +10°C° 0 mm 1 m/s 711 mmHg 89%
09:00 +11°C° 0 mm 1 m/s 711 mmHg 88%
10:00 +12°C° 0 mm 1 m/s 711 mmHg 83%
11:00 +13°C° 0 mm 2 m/s 711 mmHg 79%
12:00 +15°C° 0 mm 2 m/s 711 mmHg 74%
13:00 +15°C° 0 mm 2 m/s 711 mmHg 72%
14:00 +16°C° 0 mm 2 m/s 711 mmHg 71%
15:00 +16°C° 0 mm 3 m/s 710 mmHg 69%
16:00 +15°C° 0 mm 2 m/s 710 mmHg 74%
17:00 +13°C° 0 mm 2 m/s 710 mmHg 80%
18:00 +12°C° 0 mm 1 m/s 710 mmHg 85%
19:00 +12°C° 0 mm 1 m/s 710 mmHg 86%
20:00 +11°C° 0 mm 1 m/s 710 mmHg 86%
21:00 +11°C° 0 mm 1 m/s 710 mmHg 87%
22:00 +11°C° 0 mm 1 m/s 710 mmHg 88%
23:00 +11°C° 0 mm 1 m/s 710 mmHg 88%

29 Janeiro, Sexta-feira

Tempo Temperatura Precipitação Vento Pressão Humidade
00:00 +11°C° 0 mm 1 m/s 710 mmHg 89%
01:00 +10°C° 0 mm 1 m/s 710 mmHg 89%
02:00 +10°C° 0 mm 1 m/s 710 mmHg 89%
03:00 +10°C° 0 mm 1 m/s 709 mmHg 89%
04:00 +10°C° 0 mm 1 m/s 709 mmHg 90%
05:00 +10°C° 0 mm 1 m/s 709 mmHg 90%
06:00 +10°C° 0 mm 1 m/s 709 mmHg 90%
07:00 +10°C° 0 mm 1 m/s 710 mmHg 88%
08:00 +11°C° 0 mm 1 m/s 710 mmHg 87%
09:00 +11°C° 0 mm 1 m/s 710 mmHg 85%
10:00 +13°C° 0 mm 1 m/s 710 mmHg 80%
11:00 +14°C° 0 mm 2 m/s 710 mmHg 76%
12:00 +15°C° 0 mm 2 m/s 710 mmHg 71%
13:00 +15°C° 0 mm 2 m/s 709 mmHg 70%
14:00 +16°C° 0 mm 2 m/s 708 mmHg 69%
15:00 +16°C° 0 mm 2 m/s 708 mmHg 67%
16:00 +15°C° 0 mm 2 m/s 707 mmHg 72%
17:00 +14°C° 0 mm 2 m/s 707 mmHg 77%
18:00 +12°C° 0 mm 2 m/s 706 mmHg 82%
19:00 +12°C° 0 mm 2 m/s 705 mmHg 82%
20:00 +12°C° 0 mm 2 m/s 705 mmHg 83%
21:00 +10°C° 0 mm 2 m/s 704 mmHg 84%
22:00 +10°C° 0 mm 2 m/s 703 mmHg 85%
23:00 +10°C° 0 mm 2 m/s 703 mmHg 85%

30 Janeiro, Sábado

Tempo Temperatura Precipitação Vento Pressão Humidade
00:00 +10°C° 0 mm 2 m/s 703 mmHg 85%
01:00 +9°C° 0.6 mm 2 m/s 702 mmHg 87%
02:00 +9°C° 0.6 mm 2 m/s 701 mmHg 89%
03:00 +9°C° 0.6 mm 2 m/s 701 mmHg 91%
04:00 +8°C° 0.2 mm 3 m/s 700 mmHg 85%
05:00 +7°C° 0.2 mm 4 m/s 700 mmHg 79%
06:00 +5°C° 0.2 mm 6 m/s 699 mmHg 72%
07:00 +5°C° 0 mm 6 m/s 699 mmHg 71%
08:00 +5°C° 0 mm 6 m/s 699 mmHg 69%
09:00 +5°C° 0 mm 6 m/s 699 mmHg 68%
10:00 +6°C° 0.1 mm 8 m/s 698 mmHg 65%
11:00 +7°C° 0.1 mm 9 m/s 698 mmHg 63%
12:00 +8°C° 0.1 mm 11 m/s 697 mmHg 61%
13:00 +8°C° 0.6 mm 12 m/s 696 mmHg 67%
14:00 +7°C° 0.6 mm 13 m/s 696 mmHg 72%
15:00 +6°C° 0.6 mm 14 m/s 695 mmHg 78%
16:00 +7°C° 1.1 mm 13 m/s 697 mmHg 80%
17:00 +7°C° 1.1 mm 12 m/s 698 mmHg 82%
18:00 +7°C° 1.1 mm 12 m/s 699 mmHg 84%
19:00 +6°C° 0.3 mm 11 m/s 701 mmHg 84%
20:00 +6°C° 0.3 mm 10 m/s 703 mmHg 84%
21:00 +6°C° 0.3 mm 9 m/s 704 mmHg 84%
22:00 +5°C° 0.1 mm 8 m/s 705 mmHg 85%
23:00 +5°C° 0.1 mm 7 m/s 705 mmHg 86%

31 Janeiro, Domingo

Tempo Temperatura Precipitação Vento Pressão Humidade
00:00 +5°C° 0.1 mm 6 m/s 706 mmHg 88%
01:00 +5°C° 0.1 mm 6 m/s 706 mmHg 88%
02:00 +6°C° 0.1 mm 5 m/s 706 mmHg 88%
03:00 +6°C° 0.1 mm 5 m/s 706 mmHg 88%
04:00 +5°C° 0.2 mm 6 m/s 706 mmHg 88%
05:00 +5°C° 0.2 mm 6 m/s 707 mmHg 87%
06:00 +5°C° 0.2 mm 6 m/s 707 mmHg 87%
07:00 +5°C° 0 mm 6 m/s 707 mmHg 85%
08:00 +6°C° 0 mm 5 m/s 707 mmHg 84%
09:00 +6°C° 0 mm 5 m/s 708 mmHg 83%
10:00 +6°C° 0 mm 4 m/s 707 mmHg 80%
11:00 +7°C° 0 mm 4 m/s 707 mmHg 77%
12:00 +8°C° 0 mm 3 m/s 707 mmHg 74%
13:00 +8°C° 0 mm 3 m/s 707 mmHg 73%
14:00 +8°C° 0 mm 3 m/s 706 mmHg 72%
15:00 +9°C° 0 mm 3 m/s 706 mmHg 71%
16:00 +8°C° 0 mm 3 m/s 706 mmHg 73%
17:00 +8°C° 0 mm 2 m/s 706 mmHg 75%
18:00 +8°C° 0 mm 2 m/s 707 mmHg 77%
19:00 +8°C° 0 mm 2 m/s 707 mmHg 78%
20:00 +8°C° 0 mm 2 m/s 707 mmHg 80%
21:00 +8°C° 0 mm 3 m/s 708 mmHg 81%
22:00 +8°C° 0 mm 3 m/s 708 mmHg 83%
23:00 +8°C° 0 mm 3 m/s 708 mmHg 85%
Mostrar mais